Location: Sawyer Lake
(45.2517°N, 88.7550°W)
Time: 05:37:13
(UTC-05:00)

Daily predictions for brighter satellites

Satellite Brightness Start Highest point End
(mag) Time Altitude Azimuth Time Altitude Azimuth Time Altitude Azimuth
CZ-4C R/B 3.4 00:07:58 26° ESE 00:07:58 26° ESE 00:12:21 10° ENE
Nadezhda 4 Rocket 4.4 00:05:55 32° SW 00:08:50 59° WNW 00:15:07 10° N
Meteor 1-24 Rocket 4.4 00:08:02 39° SE 00:09:25 45° E 00:15:03 10° NNE
Cosmos 1655 Rocket 4.1 00:09:33 44° SSE 00:11:21 62° E 00:17:32 10° NNE
Cosmos 1544 3.8 00:10:38 10° NNW 00:14:03 47° W 00:14:03 47° W
ATLAS 3B R/B 3.6 00:07:46 10° WSW 00:15:16 54° NW 00:22:34 10° NNE
NOSS 3-2 (A) 4.0 00:16:20 37° SE 00:16:55 38° ESE 00:22:53 10° NE
Cosmos 2208 Rocket 4.3 00:13:00 10° NNW 00:18:02 51° WSW 00:18:49 47° SW
Meteor 2-5 Rocket 3.7 00:16:45 50° S 00:18:23 88° ESE 00:24:14 10° N
CZ-4C R/B 3.9 00:22:59 41° NW 00:22:59 41° NW 00:25:20 10° NNW
Cosmos 1943 Rocket 3.1 00:17:53 10° NW 00:22:48 33° WSW 00:23:46 31° SW
CZ-4B R/B 1.8 00:24:16 68° N 00:24:16 68° N 00:27:33 10° NNW
Cosmos 614 Rocket 3.9 00:23:29 56° SSW 00:24:35 84° WNW 00:29:51 10° NNE
Cosmos 1733 3.8 00:30:47 10° NNW 00:34:15 48° WNW 00:34:15 48° WNW
Meteor 2-1 Rocket 4.2 00:28:36 10° N 00:34:34 88° E 00:36:03 53° SSE
Cosmos 1766 Rocket 3.6 00:36:58 64° ESE 00:37:05 64° E 00:41:33 10° NNE
ISS -1.6 00:35:41 20° WNW 00:37:23 33° NNW 00:40:24 10° NE
Helios 1A Rocket 3.0 00:35:22 10° NNE 00:39:12 67° ENE 00:39:12 67° ENE
Cosmos 2344 4.4 00:38:01 30° SE 00:39:55 33° ESE 00:47:15 10° NE
CZ-2C R/B 4.4 00:39:23 23° ESE 00:41:51 34° ENE 00:46:55 10° N
Cosmos 1656 Rocket 4.0 00:36:37 10° NW 00:42:05 48° WSW 00:42:55 45° SW
Cosmos 1378 3.7 00:47:06 54° ENE 00:47:06 54° ENE 00:50:22 10° NNE
Cosmos 1470 4.2 00:43:29 10° NNW 00:46:34 27° W 00:46:34 27° W
SL-23 DEB 4.1 00:46:44 55° NNW 00:46:49 56° NNW 00:49:57 10° ENE
USA 238 DEB 4.0 00:42:39 23° SW 00:47:19 68° NW 00:54:23 10° NE
USA 238 4.0 00:42:48 23° SW 00:47:24 68° NW 00:54:28 10° NE
Cosmos 1328 Rocket 4.0 00:44:07 10° N 00:48:22 49° ENE 00:48:44 48° E
Cosmos 2026 Rocket 4.0 00:47:04 45° SSW 00:48:56 69° W 00:55:01 10° N
Cosmos 2228 Rocket 3.0 00:46:23 10° N 00:50:48 70° E 00:51:01 68° ESE
CZ-2C R/B 3.1 00:46:58 10° NNE 00:52:23 48° E 00:53:23 43° SE
Cosmos 2221 3.2 00:51:13 10° NNW 00:55:18 43° W 00:55:18 43° W
H-2A R/B 3.2 00:52:49 10° N 00:56:27 39° WNW 00:56:37 39° WNW
Cosmos 2369 3.9 00:51:52 10° NNW 00:57:31 67° ENE 00:59:25 41° SE
Lacrosse 5 rocket 4.3 00:54:42 10° NW 00:57:38 18° N 01:00:39 10° NE
Cosmos 1515 Rocket 4.1 00:53:53 10° N 00:58:14 50° ENE 00:58:44 47° E
Landsat 5 4.1 00:58:43 40° W 00:58:43 40° W 01:02:05 10° NNW
Cosmos 1076 Rocket 3.5 00:59:34 66° W 00:59:39 66° W 01:03:54 10° N
Cosmos 841 Rocket 3.9 01:04:31 10° NNW 01:09:43 57° ENE 01:11:28 38° ESE
Cosmos 1607 4.4 01:07:18 27° WSW 01:10:41 57° NW 01:16:49 10° NNE
Cosmos 405 Rocket 2.9 01:11:41 69° NNW 01:11:41 69° NNW 01:15:12 10° N
NOSS 3-3 (A) 4.4 01:04:13 10° NW 01:11:38 76° SW 01:15:02 37° SSE
NOSS 3-3 (C) 4.4 01:04:21 10° NW 01:11:46 76° SW 01:15:12 37° SSE
Lacrosse 4 Rocket 4.4 01:11:10 10° NW 01:12:18 11° NW 01:13:27 10° NNW
Lacrosse 5 3.4 01:08:57 10° NW 01:13:36 35° NNE 01:18:14 10° E
Cosmos 1908 4.1 01:13:27 10° N 01:17:06 40° ENE 01:17:15 40° E
SL-8 R/B 4.3 01:13:52 10° WNW 01:17:23 42° W 01:17:23 42° W
ALOS 2 4.1 01:19:23 24° W 01:19:23 24° W 01:22:49 10° NW
COSMOS 2487 4.4 01:19:20 22° WNW 01:19:42 22° WNW 01:22:36 10° N
Cosmos 2278 3.6 01:15:25 10° NNW 01:21:04 73° WSW 01:22:14 55° S
NOSS 3-2 (C) 3.4 01:19:35 48° SSW 01:21:31 81° SE 01:28:16 10° NE
Cosmos 1437 Rocket 3.8 01:20:54 10° N 01:24:35 36° ENE 01:25:05 35° E
Cosmos 1980 Rocket 3.8 01:20:29 10° N 01:25:29 31° NE 01:30:28 10° ESE
CENTAUR R/B 3.8 01:24:16 22° SE 01:25:38 23° ESE 01:30:42 10° ENE
Cosmos 468 Rocket 4.4 01:24:10 10° NNW 01:29:09 44° WSW 01:29:33 43° WSW
MOS 1-B Rocket 4.4 01:26:31 39° S 01:29:50 79° WSW 01:36:42 10° NNW
Cosmos 1814 Rocket 4.4 01:28:17 10° NNW 01:33:19 46° WSW 01:33:47 45° WSW
Cosmos 1441 Rocket 3.7 01:38:35 52° E 01:38:39 52° E 01:42:31 10° NNE
PSLV R/B 3.8 01:38:47 75° WSW 01:38:54 75° WSW 01:43:06 10° NNW
Cosmos 836 Rocket 4.5 01:36:12 10° NNW 01:41:27 80° ENE 01:43:01 46° SSE
ERS-2 4.4 01:39:25 10° NE 01:41:47 16° E 01:42:12 16° ESE
Cosmos 1818 3.6 01:37:02 10° NW 01:42:23 55° WSW 01:43:01 52° SW
Cosmos 2315 Rocket 4.0 01:36:44 10° N 01:43:08 85° E 01:45:31 41° SSE
Cosmos 2082 Rocket 2.3 01:43:09 49° S 01:44:33 66° ESE 01:50:11 10° NNE
Aureole 1 Rocket 3.9 01:42:21 10° NNW 01:46:35 53° ENE 01:49:24 26° SE
Cosmos 1486 Rocket 4.3 01:45:13 43° WSW 01:46:37 58° WNW 01:51:46 10° NNE
Cosmos 1697 Rocket 2.9 01:41:36 10° NNW 01:47:16 67° ENE 01:50:19 28° SE
Meteor 2-20 Rocket 4.5 01:53:11 43° SSW 01:55:15 71° W 02:01:27 10° N
CZ-4C R/B 2.6 01:53:07 32° WSW 01:55:37 58° NW 02:01:42 10° NNE
ASTEX 1 3.4 01:51:14 10° N 01:56:14 75° E 01:57:30 50° SSE
Cosmos 1833 Rocket 2.8 01:56:30 45° S 01:58:05 65° ESE 02:03:42 10° NNE
Timation 2 Rocket 4.4 01:56:22 34° SW 01:59:33 66° WNW 02:06:21 10° NNE
BREEZE-M DEB (TANK) 3.3 01:57:23 14° WNW 01:59:34 62° NNE 02:06:29 10° ESE
Cosmos 2266 Rocket 4.4 01:59:06 36° SW 02:01:27 55° WNW 02:07:46 10° N
Cosmos 1151 Rocket 3.1 02:00:21 10° NNW 02:04:33 56° W 02:04:47 55° WSW
NOSS 3-2 (A) 4.2 02:03:41 22° WSW 02:07:35 50° NW 02:14:13 10° NNE
TRAILBLAZER 4.5 02:04:45 10° NW 02:09:24 84° SW 02:10:40 47° SSE
Cosmos 1328 3.7 02:10:13 67° SSE 02:10:40 80° E 02:14:40 10° N
Landsat 4 3.6 02:10:34 71° SE 02:10:56 83° ENE 02:14:41 10° NNW
Cosmos 1674 2.8 02:12:37 56° W 02:12:41 57° W 02:16:25 10° N
Cosmos 1763 Rocket 4.1 02:08:54 10° NW 02:13:47 38° WSW 02:14:25 36° WSW
ISS -1.0 02:11:36 10° NW 02:14:26 26° N 02:17:16 10° ENE
Cosmos 724 4.2 02:12:50 42° SSW 02:14:54 86° ESE 02:20:50 10° NE
SL-14 R/B 4.2 02:14:51 33° ESE 02:15:42 37° E 02:19:16 10° NNE
H-2A R/B 3.8 02:15:26 21° SSE 02:15:44 21° SE 02:23:54 10° ESE
Cosmos 2151 3.0 02:16:27 57° SW 02:17:07 69° W 02:21:23 10° N
Cosmos 1867 3.8 02:16:03 35° WSW 02:18:16 64° NW 02:23:44 10° NNE
PSLV R/B 3.7 02:13:41 10° NNE 02:18:21 77° ESE 02:19:33 49° S
Cosmos 1726 2.9 02:15:07 10° N 02:18:42 46° ENE 02:19:43 36° ESE
Cosmos 2058 2.9 02:19:43 55° SSE 02:20:34 77° E 02:24:45 10° NNE
Iridium 2 3.5 02:20:28 71° SSW 02:20:50 82° W 02:24:39 10° N
CZ-2C R/B 3.8 02:20:27 34° WSW 02:21:37 38° W 02:26:52 10° NNW
Cosmos 540 Rocket 3.4 02:18:38 10° NNW 02:23:50 88° WSW 02:26:15 33° SSE
SL-16 R/B 3.7 02:19:11 10° NNW 02:24:23 35° NE 02:29:32 10° ESE
Sich 1 3.5 02:23:35 38° SSE 02:24:58 56° E 02:29:20 10° NNE
COS B Rocket 4.3 02:24:38 10° N 02:25:43 22° NNW 02:25:43 22° NNW
Cosmos 1656 4.0 02:22:08 10° NW 02:27:37 48° WSW 02:29:07 38° SSW
USA 32 4.3 02:26:15 10° NNW 02:31:22 52° W 02:32:57 38° SW
USA 215 3.3 02:25:26 10° NE 02:31:59 69° SE 02:35:15 32° SSW
CZ-2C R/B 4.1 02:27:45 10° N 02:32:22 27° WNW 02:34:55 19° WSW
IRS-P3 4.2 02:30:55 10° NNE 02:36:16 73° ESE 02:38:43 33° S
Cosmos 332 Rocket 3.7 02:31:59 10° NNW 02:36:49 86° ENE 02:39:28 27° SSE
Lacrosse 5 rocket 3.0 02:33:50 10° NW 02:37:53 38° NNE 02:42:07 10° E
Cosmos 2322 Rocket 3.2 02:32:58 10° NNW 02:38:24 46° ENE 02:43:46 10° SE
SL-08 R/B 3.4 02:37:04 26° SSE 02:39:47 78° ENE 02:44:43 10° N
Cosmos 1626 4.3 02:37:58 13° SE 02:40:09 20° E 02:42:59 10° NE
Resurs 1-4 Rocket 4.3 02:38:40 10° NE 02:42:19 18° E 02:45:56 10° SE
Cosmos 1271 Rocket 4.1 02:40:16 10° N 02:43:49 36° ENE 02:46:34 15° SE
Meteor 1-11 4.2 02:44:33 32° SSW 02:47:23 84° W 02:53:14 10° N
IRAS Rocket 4.2 02:45:04 10° NNE 02:50:34 74° WNW 02:53:14 31° SSW
SL-08 R/B 4.5 02:50:17 30° SSW 02:53:22 68° W 02:59:29 10° N
Cosmos 2344 4.1 02:48:00 20° WSW 02:53:45 59° NW 03:02:59 10° NE
Cosmos 1437 2.9 02:53:54 52° WSW 02:54:20 58° WNW 02:57:39 10° N
Lacrosse 5 1.8 02:51:50 10° NW 02:56:51 65° SW 03:01:51 10° SE
Cosmos 2242 Rocket 3.5 02:53:08 10° NNW 02:57:33 67° W 02:59:19 34° SSW
Cosmos 968 Rocket 3.6 02:58:51 28° S 03:01:33 69° ESE 03:06:40 10° NNE
Spot 4 Rocket 4.5 03:02:45 10° NNE 03:07:51 58° E 03:11:27 19° S
Cosmos 1980 Rocket 2.5 03:04:18 10° NW 03:09:39 46° WSW 03:12:46 23° SSW
Cosmos 2360 Rocket 4.0 03:05:15 10° N 03:10:18 32° NE 03:15:19 10° ESE
Cosmos 1538 Rocket 3.9 03:05:40 10° NNW 03:10:51 70° WSW 03:15:04 16° S
Cosmos 1300 3.8 03:10:00 10° NNW 03:13:15 27° W 03:13:48 26° WSW
CENTAUR R/B 2.7 03:11:26 24° SW 03:15:29 73° NW 03:22:31 10° NE
ERS-2 2.9 03:12:17 10° N 03:15:46 38° WNW 03:17:04 28° WSW
Cosmos 1633 Rocket 3.7 03:17:42 27° SW 03:19:34 41° WNW 03:23:47 10° N
CZ-2D R/B 3.2 03:17:40 10° NNE 03:22:34 39° E 03:27:28 10° SSE
Cosmos 1680 Rocket 4.1 03:19:30 10° NNW 03:24:40 58° ENE 03:29:48 10° SE
NPP 4.0 03:20:27 10° N 03:25:41 52° WNW 03:29:02 22° SW
USA 129 4.2 03:27:56 13° ENE 03:27:56 13° ENE 03:28:28 10° NE
Cosmos 2082 Rocket 3.8 03:25:00 11° W 03:29:08 24° NW 03:33:41 10° N
Cosmos 371 Rocket 3.6 03:24:39 10° NNW 03:29:19 46° WSW 03:32:37 18° S
SL-16 R/B 2.8 03:23:39 10° SSE 03:29:53 75° ENE 03:36:10 10° NNW
H-2A ROCKET BODY3.903:33:12SSE03:33:12SSE03:17:08WSW
Cosmos 1697 Rocket 4.1 03:26:44 10° NW 03:30:39 19° W 03:32:00 18° WSW
Cosmos 1777 Rocket 4.1 03:27:18 20° SSW 03:31:04 78° ESE 03:36:23 10° NNE
Cosmos 1703 Rocket 4.4 03:26:57 10° N 03:31:13 49° ENE 03:35:25 10° SSE
CBERS-1 4.3 03:26:47 10° N 03:31:46 53° WNW 03:35:03 21° SW
ADEOS 3.6 03:27:08 10° N 03:32:22 73° WNW 03:36:07 19° SSW
Cosmos 1470 Rocket 3.8 03:34:11 22° SSW 03:36:50 54° WNW 03:41:12 10° N
Abrixas 3.1 03:35:25 17° W 03:37:39 54° NNW 03:40:43 10° ENE
Cosmos 1346 4.4 03:35:20 13° SSE 03:37:44 37° E 03:40:38 10° NNE
Cosmos 773 Rocket 3.9 03:33:09 10° NNW 03:38:17 69° WSW 03:43:22 10° S
IRS-1D 3.9 03:33:50 10° NNE 03:39:12 69° ESE 03:44:11 12° S
Cosmos 1455 2.3 03:37:14 10° NNW 03:40:59 54° W 03:43:33 18° SSW
ARIANE 5 R/B 2.6 03:36:10 10° NNE 03:41:19 80° ESE 03:45:47 13° S
Cosmos 1933 Rocket 3.9 03:39:02 21° SW 03:41:40 49° WNW 03:45:58 10° N
BREEZE-M DEB (TANK) 3.8 03:31:27 10° W 03:42:08 82° N 03:45:43 10° E
Cosmos 1833 Rocket 4.3 03:38:11 11° W 03:42:31 24° NW 03:47:02 10° N
USA 161 2.1 03:45:54 25° W 03:45:59 25° W 03:48:02 10° NW
Meteor 1-4 Rocket 3.2 03:42:33 10° NNW 03:46:04 38° W 03:48:17 19° SSW
ATLAS CENTAUR R/B 4.1 03:42:39 10° NNW 03:46:45 27° NE 03:50:36 10° E
Cosmos 304 Rocket 3.9 03:43:25 10° NNW 03:48:17 78° ENE 03:53:07 10° SSE
Cosmos 1869 3.5 03:45:10 10° NNW 03:49:03 53° W 03:52:19 14° S
Cosmos 2292 Rocket 2.7 03:48:36 20° SSW 03:50:33 73° W 03:54:01 10° N
UNKNOWN OBJECT B 3.6 03:47:10 10° NNE 03:50:50 46° E 03:54:33 10° S
ISS -2.8 03:48:03 10° WNW 03:51:17 62° NNE 03:54:32 10° ESE
Cosmos 1726 4.2 03:52:10 10° WNW 03:53:39 12° W 03:54:23 11° W
ATLAS 5 CENTAUR R/B 2.8 03:50:28 12° S 03:54:44 43° ESE 03:59:41 10° NE
MTI 3.8 03:54:39 10° S 03:58:01 82° WSW 04:01:24 10° NNW
Cosmos 1709 Rocket 4.3 03:53:02 14° SSW 03:58:25 56° WNW 04:04:35 10° N
Okean O Rocket 2.8 03:57:54 10° NNE 04:02:07 40° E 04:06:16 10° SSE
Okean 1-7 3.3 04:02:42 10° N 04:07:07 74° E 04:11:29 10° SSE
MOS 1-B 4.4 04:02:22 10° NNE 04:08:12 90° WNW 04:13:59 10° SSW
SL-16 R/B 2.6 04:03:16 10° NW 04:08:33 41° WSW 04:13:48 10° S
Cosmos 1933 3.4 04:06:09 10° NNW 04:10:08 60° W 04:14:06 10° S
USA 215 4.0 04:08:36 10° NE 04:14:50 49° NNW 04:21:03 10° W
Cosmos 1626 3.3 04:12:42 13° SW 04:15:25 28° WNW 04:18:42 10° NNW
EO 1 Del DPAF 4.2 04:13:36 10° SSW 04:17:02 29° W 04:20:30 10° NW
Lacrosse 5 rocket 1.8 04:13:04 10° WNW 04:17:16 44° SW 04:21:36 10° SSE
Cosmos 2112 Rocket 4.1 04:13:21 10° NNW 04:18:27 58° WSW 04:23:30 10° S
Cosmos 1271 Rocket 4.4 04:17:11 10° NW 04:19:35 16° W 04:21:45 11° SW
UNK 4.1 04:16:07 10° S 04:20:28 43° W 04:24:52 10° NNW
CZ-2C R/B 3.7 04:16:09 10° SSE 04:20:38 88° W 04:25:12 10° NNW
Cosmos 2322 Rocket 3.0 04:17:25 10° NW 04:22:13 29° WSW 04:26:58 10° SSW
Resurs 1-4 Rocket 2.2 04:17:20 10° N 04:22:36 64° WNW 04:27:51 10° SSW
Cosmos 2221 Rocket 3.9 04:18:25 10° NNW 04:22:45 49° W 04:27:06 10° SSW
SL-08 ROCKET BODY 4.5 04:23:26 10° S 04:29:27 85° W 04:35:38 10° N
SME Rocket 3.9 04:26:00 10° S 04:32:53 64° WSW 04:37:34 10° NNW
Cosmos 2219 Rocket 4.1 04:29:08 10° NNW 04:34:18 36° NE 04:39:25 10° ESE
BREEZE-M DEB (TANK) 3.9 04:28:38 10° SW 04:37:57 41° SSE 04:41:12 10° E
OAO 3 Rocket 4.4 04:35:04 10° SW 04:38:45 23° S 04:42:30 10° SE
Lacrosse 5 3.6 04:37:28 10° W 04:38:55 11° WSW 04:40:23 10° SW
